This demonstration page uses our WeatherBlox Daily Observations layout. Learn more.

38.89511, -77.03637

Hourly Observations for October 28, 2018

Temp ( °F °C ) Dew Point ( °F °C ) Humidity (%) Winds ( mph kmh ) Pressure ( in mb ) Visibility ( mi km ) Precip ( " mm )
12:52 am 00:52 Cloudy 51 10.6 47 8.3 86 86 SSW 6 9 29.74 1007 10 16.0934 0 0
1:52 am 01:52 Cloudy with Light Rain 51 10.6 46 7.8 83 83 SW 5 7 29.74 1007 10 16.0934 0 0.0254
2:52 am 02:52 Cloudy with Light Rain 51 10.6 47 8.3 86 86 SSW 3 6 29.75 1008 10 16.0934 0 0.0254
3:52 am 03:52 Cloudy with Light Rain 50 10 47 8.3 89 89 SSW 6 9 29.76 1008 10 16.0934 0 0.0254
4:52 am 04:52 Cloudy 51 10.6 47 8.3 86 86 SSW 6 9 29.78 1008 10 16.0934 0 0.0254
5:52 am 05:52 Cloudy 51 10.6 47 8.3 86 86 SW 6 9 29.78 1009 10 16.0934 0 0
6:52 am 06:52 Cloudy 51 10.6 47 8.3 86 86 SSW 6 9 29.8 1009 10 16.0934 0 0
7:52 am 07:52 Cloudy 51 10.6 47 8.3 86 86 SSW 5 7 29.83 1010 10 16.0934 0 0
8:52 am 08:52 Cloudy 52 11.1 47 8.3 83 83 SSW 7 11 29.85 1011 10 16.0934 0 0
9:52 am 09:52 Cloudy 54 12.2 45 7.2 72 72 WSW 7 11 29.87 1012 10 16.0934 0 0
10:52 am 10:52 Cloudy 57 13.9 44 6.7 62 62 VRB 6 9 29.88 1012 10 16.0934 0 0
11:52 am 11:52 Mostly Cloudy 59 15 41 5 51 51 W 13 20 29.87 1012 10 16.0934 0 0
12:52 pm 12:52 Cloudy 58 14.4 40 4.4 51 51 W 14 22 29.87 1012 10 16.0934 0 0
1:52 pm 13:52 Cloudy 59 15 41 5 51 51 W 9 15 29.85 1011 10 16.0934 0 0
2:52 pm 14:52 Mostly Cloudy 59 15 41 5 51 51 WSW 10 17 29.84 1011 10 16.0934 0 0
3:52 pm 15:52 Mostly Cloudy 60 15.6 41 5 50 50 WSW 7 11 29.82 1010 10 16.0934 0 0
4:52 pm 16:52 Partly Cloudy 61 16.1 41 5 48 48 WSW 10 17 29.81 1010 10 16.0934 0 0
5:52 pm 17:52 Partly Cloudy 59 15 40 4.4 49 49 SW 6 9 29.8 1009 10 16.0934 0 0
6:52 pm 18:52 Mostly Cloudy with Light Rain 56 13.3 47 8.3 72 72 S 10 17 29.79 1009 10 16.0934 0 0.0254
7:52 pm 19:52 Cloudy with Light Rain 55 12.8 46 7.8 72 72 S 9 15 29.79 1009 10 16.0934 0.02 0.508
8:52 pm 20:52 Mostly Cloudy 54 12.2 46 7.8 75 75 S 8 13 29.76 1008 10 16.0934 0 0.0254
9:52 pm 21:52 Mostly Cloudy 54 12.2 46 7.8 75 75 S 12 19 29.75 1007 10 16.0934 0 0
10:52 pm 22:52 Mostly Clear 54 12.2 46 7.8 75 75 S 10 17 29.74 1007 10 16.0934 0 0
11:52 pm 23:52 Mostly Cloudy with Light Rain 54 12.2 46 7.8 75 75 SSW 13 20 29.75 1007 10 16.0934 0 0.0254

Powered by AerisWeather